FFT1799 KRDU-KIND

Flight info

Callsign FFT1799
Flight time 1h 30m
Altitude 32000
Route LWOOD5 DANCO ZIEBR HAGAL GIIBS4
Aircraft A21N/M-SDE3FGHIRWY/LB1

Departure

Time 2026-05-07 01:06
Airport Raleigh-Durham International Airport (KRDU)

Arrival

Time 2026-05-07 02:36
Airport Indianapolis International Airport (KIND)
Time Latitude Longitude Altitude Speed Heading
2026-05-07 00:35 35.87582 -78.79487 392 ft 0 kts 317°
2026-05-07 00:46 35.87584 -78.79490 392 ft 0 kts 317°
2026-05-07 00:46 35.87576 -78.79481 393 ft 2 kts 321°
2026-05-07 00:47 35.87568 -78.79473 393 ft 1 kts 316°
2026-05-07 00:47 35.87562 -78.79459 394 ft 2 kts 264°
2026-05-07 00:47 35.87566 -78.79446 394 ft 0 kts 222°
2026-05-07 00:47 35.87571 -78.79441 394 ft 0 kts 224°
2026-05-07 00:49 35.87571 -78.79442 394 ft 0 kts 224°
2026-05-07 00:49 35.87544 -78.79468 394 ft 8 kts 217°
2026-05-07 00:50 35.87498 -78.79515 392 ft 7 kts 224°
2026-05-07 00:50 35.87454 -78.79569 390 ft 9 kts 225°
2026-05-07 00:50 35.87414 -78.79641 388 ft 11 kts 265°
2026-05-07 00:50 35.87465 -78.79727 383 ft 14 kts 317°
2026-05-07 00:51 35.87519 -78.79777 381 ft 5 kts 347°
2026-05-07 00:51 35.87559 -78.79761 382 ft 6 kts 38°
2026-05-07 00:51 35.87577 -78.79739 382 ft 0 kts 44°
2026-05-07 00:52 35.87584 -78.79730 382 ft 8 kts 45°
2026-05-07 00:52 35.87626 -78.79681 384 ft 6 kts 44°
2026-05-07 00:52 35.87650 -78.79652 385 ft 3 kts 45°
2026-05-07 00:53 35.87668 -78.79629 385 ft 3 kts 45°
2026-05-07 00:53 35.87693 -78.79599 386 ft 5 kts 44°
2026-05-07 00:53 35.87727 -78.79558 387 ft 7 kts 44°
2026-05-07 00:53 35.87765 -78.79511 388 ft 6 kts 45°
2026-05-07 00:54 35.87809 -78.79456 390 ft 10 kts 45°
2026-05-07 00:54 35.87851 -78.79404 391 ft 7 kts 46°
2026-05-07 00:54 35.87886 -78.79359 392 ft 6 kts 45°
2026-05-07 00:54 35.87917 -78.79321 393 ft 9 kts 44°
2026-05-07 00:55 35.87981 -78.79243 395 ft 15 kts 45°
2026-05-07 00:55 35.88066 -78.79137 398 ft 19 kts 46°
2026-05-07 00:55 35.88156 -78.79024 401 ft 17 kts 45°
2026-05-07 00:55 35.88235 -78.78925 402 ft 15 kts 44°
2026-05-07 00:56 35.88321 -78.78822 404 ft 19 kts 45°
2026-05-07 00:56 35.88416 -78.78702 405 ft 18 kts 44°
2026-05-07 00:56 35.88509 -78.78589 405 ft 18 kts 45°
2026-05-07 00:56 35.88602 -78.78476 404 ft 19 kts 44°
2026-05-07 00:57 35.88697 -78.78357 404 ft 19 kts 45°
2026-05-07 00:57 35.88792 -78.78239 403 ft 19 kts 44°
2026-05-07 00:57 35.88890 -78.78120 402 ft 19 kts 45°
2026-05-07 00:57 35.88974 -78.77999 402 ft 18 kts 64°
2026-05-07 00:58 35.89032 -78.77870 403 ft 15 kts 50°
2026-05-07 00:58 35.89097 -78.77784 403 ft 11 kts 45°
2026-05-07 00:58 35.89144 -78.77724 404 ft 4 kts 45°
2026-05-07 00:58 35.89152 -78.77714 404 ft 0 kts 46°
2026-05-07 00:59 35.89212 -78.77657 405 ft 3 kts 351°
2026-05-07 00:59 35.89218 -78.77658 405 ft 0 kts 351°
2026-05-07 01:01 35.89231 -78.77662 404 ft 4 kts 341°
2026-05-07 01:01 35.89253 -78.77677 404 ft 1 kts 323°
2026-05-07 01:01 35.89254 -78.77678 404 ft 0 kts 323°
2026-05-07 01:03 35.89276 -78.77700 404 ft 3 kts 319°
2026-05-07 01:04 35.89300 -78.77728 404 ft 5 kts 315°
2026-05-07 01:04 35.89332 -78.77766 404 ft 10 kts 315°
2026-05-07 01:04 35.89348 -78.77844 403 ft 8 kts 239°
2026-05-07 01:04 35.89338 -78.77859 403 ft 0 kts 229°
2026-05-07 01:05 35.89288 -78.77923 402 ft 39 kts 223°
2026-05-07 01:05 35.88919 -78.78374 400 ft 107 kts 225°
2026-05-07 01:05 35.88247 -78.79202 395 ft 163 kts 225°
2026-05-07 01:06 35.87397 -78.80263 713 ft 180 kts 228°
2026-05-07 01:06 35.86636 -78.81476 1326 ft 180 kts 234°
2026-05-07 01:06 35.85888 -78.82707 2009 ft 182 kts 233°
2026-05-07 01:06 35.85145 -78.83944 2696 ft 183 kts 234°
2026-05-07 01:07 35.84372 -78.85234 3118 ft 197 kts 234°
2026-05-07 01:07 35.83537 -78.86706 3424 ft 219 kts 244°
2026-05-07 01:07 35.83204 -78.88602 3810 ft 239 kts 265°
2026-05-07 01:07 35.83065 -78.90660 4426 ft 246 kts 262°
2026-05-07 01:08 35.82854 -78.92724 5210 ft 247 kts 261°
2026-05-07 01:08 35.82616 -78.94815 5989 ft 248 kts 261°
2026-05-07 01:08 35.82625 -78.96942 6674 ft 255 kts 284°
2026-05-07 01:08 35.83569 -78.98801 7380 ft 265 kts 310°
2026-05-07 01:09 35.84879 -79.00387 8128 ft 265 kts 309°
2026-05-07 01:09 35.86149 -79.01997 8816 ft 267 kts 309°
2026-05-07 01:09 35.87420 -79.03655 9524 ft 267 kts 308°
2026-05-07 01:09 35.88683 -79.05328 10214 ft 267 kts 308°
2026-05-07 01:10 35.89955 -79.07032 10599 ft 280 kts 308°
2026-05-07 01:10 35.91307 -79.08853 10880 ft 295 kts 307°
2026-05-07 01:10 35.92720 -79.10758 11148 ft 310 kts 307°
2026-05-07 01:10 35.94223 -79.12789 11405 ft 325 kts 308°
2026-05-07 01:11 35.95771 -79.14876 11766 ft 334 kts 308°
2026-05-07 01:11 35.97335 -79.16985 12331 ft 337 kts 307°
2026-05-07 01:11 35.98925 -79.19128 12932 ft 339 kts 307°
2026-05-07 01:11 36.00515 -79.21278 13524 ft 341 kts 307°
2026-05-07 01:12 36.02052 -79.23482 14053 ft 341 kts 303°
2026-05-07 01:12 36.03387 -79.25897 14533 ft 341 kts 297°
2026-05-07 01:12 36.04479 -79.28483 15065 ft 340 kts 291°
2026-05-07 01:12 36.05435 -79.31132 15594 ft 341 kts 291°
2026-05-07 01:13 36.06445 -79.33811 16084 ft 345 kts 296°
2026-05-07 01:13 36.07867 -79.36195 16547 ft 353 kts 308°
2026-05-07 01:13 36.09770 -79.38232 16909 ft 367 kts 319°
2026-05-07 01:13 36.11941 -79.39893 17291 ft 373 kts 323°
2026-05-07 01:14 36.14202 -79.41555 17738 ft 375 kts 323°
2026-05-07 01:14 36.16447 -79.43193 18182 ft 376 kts 323°
2026-05-07 01:14 36.18705 -79.44841 18536 ft 380 kts 323°
2026-05-07 01:14 36.20986 -79.46501 18903 ft 383 kts 323°
2026-05-07 01:15 36.23277 -79.48174 19285 ft 385 kts 323°
2026-05-07 01:15 36.25596 -79.49863 19690 ft 386 kts 323°
2026-05-07 01:15 36.27890 -79.51540 20021 ft 389 kts 322°
2026-05-07 01:15 36.30259 -79.53274 20331 ft 393 kts 323°
2026-05-07 01:16 36.32585 -79.54982 20676 ft 395 kts 323°
2026-05-07 01:16 36.34972 -79.56733 21008 ft 397 kts 323°
2026-05-07 01:16 36.37351 -79.58476 21349 ft 399 kts 322°
2026-05-07 01:16 36.39736 -79.60232 21649 ft 401 kts 323°
2026-05-07 01:17 36.42283 -79.61792 21906 ft 415 kts 333°
2026-05-07 01:17 36.45137 -79.62572 22126 ft 432 kts 347°
2026-05-07 01:17 36.48185 -79.62470 22410 ft 448 kts
2026-05-07 01:17 36.51231 -79.61455 22666 ft 463 kts 15°
2026-05-07 01:18 36.54202 -79.59782 22996 ft 468 kts 20°
2026-05-07 01:18 36.57081 -79.57975 23547 ft 464 kts 21°
2026-05-07 01:18 36.59965 -79.56119 23911 ft 465 kts 21°
2026-05-07 01:18 36.62835 -79.54276 24157 ft 466 kts 19°
2026-05-07 01:19 36.65881 -79.53109 24311 ft 449 kts 358°
2026-05-07 01:19 36.68886 -79.53352 24580 ft 425 kts 336°
2026-05-07 01:19 36.71466 -79.54874 24836 ft 403 kts 316°
2026-05-07 01:19 36.73428 -79.57233 25150 ft 389 kts 302°
2026-05-07 01:20 36.74807 -79.60067 25427 ft 379 kts 289°
2026-05-07 01:20 36.75730 -79.63134 25587 ft 381 kts 285°
2026-05-07 01:20 36.76645 -79.66249 25696 ft 386 kts 285°
2026-05-07 01:20 36.77596 -79.69415 25856 ft 391 kts 285°
2026-05-07 01:21 36.78562 -79.72574 26099 ft 392 kts 285°
2026-05-07 01:21 36.79528 -79.75726 26394 ft 392 kts 286°
2026-05-07 01:21 36.80507 -79.78893 26648 ft 393 kts 286°
2026-05-07 01:21 36.81488 -79.82059 26880 ft 394 kts 286°
2026-05-07 01:22 36.82482 -79.85267 27093 ft 395 kts 286°
2026-05-07 01:22 36.83466 -79.88438 27242 ft 398 kts 285°
2026-05-07 01:22 36.84471 -79.91682 27477 ft 398 kts 286°
2026-05-07 01:22 36.85465 -79.94897 27845 ft 395 kts 285°
2026-05-07 01:23 36.86443 -79.98052 28207 ft 393 kts 285°
2026-05-07 01:23 36.87427 -80.01230 28563 ft 390 kts 285°
2026-05-07 01:23 36.88398 -80.04369 28991 ft 386 kts 285°
2026-05-07 01:23 36.89355 -80.07458 29360 ft 384 kts 284°
2026-05-07 01:24 36.90303 -80.10544 29674 ft 382 kts 285°
2026-05-07 01:24 36.91245 -80.13618 30030 ft 379 kts 284°
2026-05-07 01:24 36.92189 -80.16690 30391 ft 377 kts 285°
2026-05-07 01:24 36.93126 -80.19741 30724 ft 375 kts 285°
2026-05-07 01:25 36.94051 -80.22765 30991 ft 374 kts 285°
2026-05-07 01:25 36.94975 -80.25780 31229 ft 373 kts 285°
2026-05-07 01:25 36.95896 -80.28791 31450 ft 373 kts 284°
2026-05-07 01:25 36.96817 -80.31807 31688 ft 372 kts 284°
2026-05-07 01:26 36.97745 -80.34847 31917 ft 371 kts 285°
2026-05-07 01:26 36.99578 -80.40851 31959 ft 372 kts 284°
2026-05-07 01:27 37.01407 -80.46861 31961 ft 372 kts 284°
2026-05-07 01:27 37.03236 -80.52890 31975 ft 371 kts 284°
2026-05-07 01:28 37.05061 -80.58931 31975 ft 370 kts 284°
2026-05-07 01:28 37.06879 -80.64945 31975 ft 371 kts 284°
2026-05-07 01:29 37.08701 -80.70988 31983 ft 371 kts 283°
2026-05-07 01:29 37.10412 -80.77049 31978 ft 369 kts 282°
2026-05-07 01:30 37.12085 -80.83110 31980 ft 371 kts 282°
2026-05-07 01:30 37.13773 -80.89221 31974 ft 371 kts 282°
2026-05-07 01:31 37.15451 -80.95325 31975 ft 371 kts 282°
2026-05-07 01:31 37.17119 -81.01395 31970 ft 370 kts 282°
2026-05-07 01:32 37.18788 -81.07468 31975 ft 371 kts 282°
2026-05-07 01:32 37.20461 -81.13589 31983 ft 370 kts 282°
2026-05-07 01:33 37.22131 -81.19693 31989 ft 370 kts 281°
2026-05-07 01:33 37.23781 -81.25760 32001 ft 370 kts 281°
2026-05-07 01:34 37.25433 -81.31847 32001 ft 367 kts 282°
2026-05-07 01:34 37.27075 -81.37896 32001 ft 367 kts 282°
2026-05-07 01:35 37.28719 -81.43963 31989 ft 369 kts 281°
2026-05-07 01:35 37.30360 -81.50053 31980 ft 368 kts 282°
2026-05-07 01:36 37.31983 -81.56089 31982 ft 367 kts 281°
2026-05-07 01:36 37.33608 -81.62141 31992 ft 367 kts 281°
2026-05-07 01:37 37.35239 -81.68227 31983 ft 366 kts 281°
2026-05-07 01:37 37.36855 -81.74274 31991 ft 366 kts 281°
2026-05-07 01:38 37.38474 -81.80325 31980 ft 366 kts 280°
2026-05-07 01:38 37.40084 -81.86379 31975 ft 366 kts 281°
2026-05-07 01:39 37.41683 -81.92421 31982 ft 367 kts 281°
2026-05-07 01:39 37.43296 -81.98499 31979 ft 365 kts 280°
2026-05-07 01:40 37.44900 -82.04562 31991 ft 365 kts 281°
2026-05-07 01:40 37.46480 -82.10564 31989 ft 364 kts 281°
2026-05-07 01:41 37.48071 -82.16606 31977 ft 365 kts 280°
2026-05-07 01:41 37.49668 -82.22685 31985 ft 366 kts 279°
2026-05-07 01:42 37.51252 -82.28745 31981 ft 365 kts 281°
2026-05-07 01:42 37.52836 -82.34804 31982 ft 366 kts 280°
2026-05-07 01:43 37.54412 -82.40859 31992 ft 365 kts 280°
2026-05-07 01:43 37.55981 -82.46910 31995 ft 365 kts 281°
2026-05-07 01:44 37.57550 -82.52975 32005 ft 365 kts 280°
2026-05-07 01:44 37.59120 -82.59040 32006 ft 364 kts 280°
2026-05-07 01:45 37.60683 -82.65105 32004 ft 364 kts 279°
2026-05-07 01:45 37.62238 -82.71155 32011 ft 363 kts 279°
2026-05-07 01:46 37.63688 -82.77200 32003 ft 360 kts 277°
2026-05-07 01:46 37.64967 -82.83311 32003 ft 361 kts 277°
2026-05-07 01:47 37.66241 -82.89401 31998 ft 361 kts 277°
2026-05-07 01:47 37.67511 -82.95531 31994 ft 359 kts 277°
2026-05-07 01:48 37.68773 -83.01629 31994 ft 360 kts 277°
2026-05-07 01:48 37.70038 -83.07747 31999 ft 361 kts 277°
2026-05-07 01:49 37.71289 -83.13853 32001 ft 359 kts 277°
2026-05-07 01:49 37.72534 -83.19926 32001 ft 359 kts 277°
2026-05-07 01:50 37.73773 -83.26009 32007 ft 359 kts 277°
2026-05-07 01:50 37.75020 -83.32111 32009 ft 360 kts 277°
2026-05-07 01:51 37.76252 -83.38204 32001 ft 359 kts 277°
2026-05-07 01:51 37.77488 -83.44322 32015 ft 359 kts 277°
2026-05-07 01:52 37.78716 -83.50401 32013 ft 358 kts 277°
2026-05-07 01:52 37.79944 -83.56486 32015 ft 358 kts 276°
2026-05-07 01:53 37.81160 -83.62557 32002 ft 359 kts 277°
2026-05-07 01:53 37.82380 -83.68661 32013 ft 357 kts 277°
2026-05-07 01:54 37.83591 -83.74731 32006 ft 357 kts 276°
2026-05-07 01:54 37.84803 -83.80814 32006 ft 358 kts 276°
2026-05-07 01:55 37.86005 -83.86890 32005 ft 357 kts 276°
2026-05-07 01:55 37.87197 -83.92934 32010 ft 357 kts 277°
2026-05-07 01:56 37.88402 -83.99026 32017 ft 356 kts 276°
2026-05-07 01:56 37.89594 -84.05087 32012 ft 356 kts 277°
2026-05-07 01:57 37.90781 -84.11145 32009 ft 357 kts 276°
2026-05-07 01:57 37.91974 -84.17242 32010 ft 357 kts 276°
2026-05-07 01:58 37.93154 -84.23318 32008 ft 355 kts 276°
2026-05-07 01:58 37.94329 -84.29368 32004 ft 355 kts 277°
2026-05-07 01:59 37.95501 -84.35428 32007 ft 354 kts 276°
2026-05-07 01:59 37.96677 -84.41496 32012 ft 355 kts 276°
2026-05-07 02:00 37.97843 -84.47541 32016 ft 354 kts 276°
2026-05-07 02:00 37.99001 -84.53580 32016 ft 352 kts 276°
2026-05-07 02:00 37.99577 -84.56587 31902 ft 353 kts 276°
2026-05-07 02:01 38.00163 -84.59615 31637 ft 356 kts 277°
2026-05-07 02:01 38.00740 -84.62655 31376 ft 356 kts 277°
2026-05-07 02:01 38.01324 -84.65696 31121 ft 357 kts 276°
2026-05-07 02:01 38.01913 -84.68790 30862 ft 359 kts 275°
2026-05-07 02:02 38.02493 -84.71864 30603 ft 358 kts 275°
2026-05-07 02:02 38.03071 -84.74937 30346 ft 359 kts 275°
2026-05-07 02:02 38.03652 -84.78003 30090 ft 361 kts 276°
2026-05-07 02:03 38.04819 -84.84189 30018 ft 363 kts 276°
2026-05-07 02:03 38.05987 -84.90377 30015 ft 362 kts 276°
2026-05-07 02:04 38.07156 -84.96597 30009 ft 363 kts 275°
2026-05-07 02:04 38.08315 -85.02811 30008 ft 362 kts 275°
2026-05-07 02:05 38.09473 -85.09029 30010 ft 361 kts 276°
2026-05-07 02:05 38.10636 -85.15248 29875 ft 357 kts 276°
2026-05-07 02:05 38.11198 -85.18263 29626 ft 351 kts 276°
2026-05-07 02:06 38.11735 -85.21158 29385 ft 350 kts 276°
2026-05-07 02:06 38.12299 -85.24193 29141 ft 351 kts 276°
2026-05-07 02:06 38.12852 -85.27207 28904 ft 352 kts 276°
2026-05-07 02:06 38.13354 -85.29940 28683 ft 353 kts 276°
2026-05-07 02:07 38.13912 -85.32961 28441 ft 354 kts 276°
2026-05-07 02:07 38.15030 -85.39066 27949 ft 355 kts 276°
2026-05-07 02:07 38.15592 -85.42120 27706 ft 358 kts 276°
2026-05-07 02:08 38.16150 -85.45181 27474 ft 358 kts 276°
2026-05-07 02:08 38.16714 -85.48261 27230 ft 360 kts 276°
2026-05-07 02:08 38.17419 -85.51334 26970 ft 370 kts 283°
2026-05-07 02:08 38.18732 -85.54227 26737 ft 389 kts 295°
2026-05-07 02:09 38.20615 -85.56754 26495 ft 407 kts 307°
2026-05-07 02:09 38.23053 -85.58733 26247 ft 431 kts 320°
2026-05-07 02:09 38.25995 -85.59918 26048 ft 460 kts 335°
2026-05-07 02:09 38.29202 -85.60480 26038 ft 467 kts 339°
2026-05-07 02:10 38.32447 -85.60988 26031 ft 470 kts 339°
2026-05-07 02:10 38.35690 -85.61472 26034 ft 471 kts 339°
2026-05-07 02:10 38.38966 -85.61948 26031 ft 470 kts 339°
2026-05-07 02:10 38.42148 -85.62541 26013 ft 457 kts 333°
2026-05-07 02:11 38.45053 -85.63795 26028 ft 430 kts 321°
2026-05-07 02:11 38.47538 -85.65708 26034 ft 408 kts 308°
2026-05-07 02:11 38.49532 -85.68166 26039 ft 388 kts 298°
2026-05-07 02:11 38.51174 -85.70737 26039 ft 383 kts 296°
2026-05-07 02:12 38.52790 -85.73429 26040 ft 381 kts 295°
2026-05-07 02:12 38.54394 -85.76128 26033 ft 382 kts 295°
2026-05-07 02:12 38.55993 -85.78803 26003 ft 381 kts 295°
2026-05-07 02:12 38.57600 -85.81476 25646 ft 376 kts 295°
2026-05-07 02:13 38.59177 -85.84100 24986 ft 373 kts 295°
2026-05-07 02:13 38.60745 -85.86704 24244 ft 373 kts 295°
2026-05-07 02:13 38.62326 -85.89314 23598 ft 371 kts 296°
2026-05-07 02:13 38.64275 -85.91571 23070 ft 399 kts 313°
2026-05-07 02:14 38.66897 -85.93111 22834 ft 428 kts 328°
2026-05-07 02:14 38.69922 -85.93745 22597 ft 459 kts 344°
2026-05-07 02:14 38.73148 -85.93436 22386 ft 475 kts 353°
2026-05-07 02:14 38.76454 -85.92897 22091 ft 474 kts 354°
2026-05-07 02:15 38.79669 -85.92345 21733 ft 469 kts 354°
2026-05-07 02:15 38.82909 -85.91795 21320 ft 465 kts 354°
2026-05-07 02:15 38.86087 -85.91274 20802 ft 461 kts 354°
2026-05-07 02:15 38.89276 -85.90762 20272 ft 456 kts 354°
2026-05-07 02:16 38.92370 -85.90271 19789 ft 450 kts 354°
2026-05-07 02:16 38.95478 -85.89780 19288 ft 445 kts 354°
2026-05-07 02:16 38.98530 -85.89305 18771 ft 440 kts 355°
2026-05-07 02:16 39.01560 -85.88831 18250 ft 436 kts 355°
2026-05-07 02:17 39.04538 -85.88366 17733 ft 432 kts 355°
2026-05-07 02:17 39.07503 -85.87891 17226 ft 427 kts 356°
2026-05-07 02:17 39.10430 -85.87423 16704 ft 422 kts 356°
2026-05-07 02:17 39.13343 -85.86964 16150 ft 419 kts 356°
2026-05-07 02:18 39.16193 -85.86520 15703 ft 412 kts 357°
2026-05-07 02:18 39.19022 -85.86076 15156 ft 407 kts 357°
2026-05-07 02:18 39.21854 -85.85632 14694 ft 401 kts 357°
2026-05-07 02:18 39.24573 -85.85209 14211 ft 395 kts 357°
2026-05-07 02:19 39.27280 -85.84782 13629 ft 383 kts 358°
2026-05-07 02:19 39.29885 -85.84378 13068 ft 368 kts 357°
2026-05-07 02:19 39.32264 -85.84454 13004 ft 325 kts 340°
2026-05-07 02:19 39.34259 -85.85310 12990 ft 285 kts 324°
2026-05-07 02:20 39.35860 -85.86672 12994 ft 270 kts 313°
2026-05-07 02:20 39.37317 -85.88203 12994 ft 266 kts 312°
2026-05-07 02:20 39.38746 -85.89730 12997 ft 268 kts 312°
2026-05-07 02:20 39.40189 -85.91263 12998 ft 269 kts 313°
2026-05-07 02:21 39.41676 -85.92843 13012 ft 288 kts 313°
2026-05-07 02:21 39.43263 -85.94521 13014 ft 301 kts 313°
2026-05-07 02:21 39.44903 -85.96236 13011 ft 305 kts 314°
2026-05-07 02:21 39.46558 -85.97953 13011 ft 307 kts 314°
2026-05-07 02:22 39.48257 -85.99626 13010 ft 306 kts 315°
2026-05-07 02:22 39.49960 -86.01279 13003 ft 306 kts 316°
2026-05-07 02:22 39.51671 -86.02948 13000 ft 306 kts 315°
2026-05-07 02:22 39.53366 -86.04604 12991 ft 299 kts 315°
2026-05-07 02:23 39.54978 -86.06175 12986 ft 282 kts 315°
2026-05-07 02:23 39.56503 -86.07664 12953 ft 268 kts 315°
2026-05-07 02:23 39.57976 -86.09115 12570 ft 266 kts 315°
2026-05-07 02:23 39.59408 -86.10599 12094 ft 266 kts 312°
2026-05-07 02:24 39.60741 -86.12238 11688 ft 263 kts 309°
2026-05-07 02:24 39.62029 -86.13913 11279 ft 262 kts 309°
2026-05-07 02:24 39.63306 -86.15589 10855 ft 262 kts 309°
2026-05-07 02:24 39.64576 -86.17252 10520 ft 259 kts 309°
2026-05-07 02:25 39.65958 -86.18735 10213 ft 261 kts 329°
2026-05-07 02:25 39.67752 -86.19116 9893 ft 275 kts
2026-05-07 02:25 39.69514 -86.18081 9581 ft 287 kts 37°
2026-05-07 02:25 39.70820 -86.16132 9346 ft 284 kts 49°
2026-05-07 02:26 39.72007 -86.14142 9183 ft 275 kts 47°
2026-05-07 02:26 39.73234 -86.12272 9009 ft 265 kts 43°
2026-05-07 02:26 39.74464 -86.10563 8832 ft 256 kts 41°
2026-05-07 02:26 39.75694 -86.08934 8560 ft 252 kts 41°
2026-05-07 02:27 39.76918 -86.07336 8247 ft 249 kts 41°
2026-05-07 02:27 39.78144 -86.05738 7938 ft 247 kts 41°
2026-05-07 02:27 39.79355 -86.04165 7627 ft 245 kts 41°
2026-05-07 02:27 39.80547 -86.02613 7330 ft 242 kts 41°
2026-05-07 02:28 39.81724 -86.01083 7036 ft 239 kts 42°
2026-05-07 02:28 39.82902 -85.99549 6728 ft 237 kts 42°
2026-05-07 02:28 39.84063 -85.98034 6420 ft 235 kts 42°
2026-05-07 02:28 39.85211 -85.96566 6116 ft 232 kts 37°
2026-05-07 02:29 39.86610 -85.95670 5776 ft 222 kts
2026-05-07 02:29 39.88097 -85.95921 5442 ft 214 kts 331°
2026-05-07 02:29 39.89272 -85.97014 5157 ft 208 kts 315°
2026-05-07 02:29 39.90009 -85.98603 4785 ft 209 kts 283°
2026-05-07 02:30 39.89941 -86.00500 4456 ft 211 kts 260°
2026-05-07 02:30 39.89541 -86.02322 4161 ft 210 kts 256°
2026-05-07 02:30 39.89077 -86.04106 3986 ft 209 kts 255°
2026-05-07 02:30 39.88526 -86.05881 3984 ft 213 kts 248°
2026-05-07 02:31 39.87738 -86.07529 3983 ft 216 kts 238°
2026-05-07 02:31 39.86754 -86.09029 3981 ft 217 kts 232°
2026-05-07 02:31 39.85718 -86.10441 3982 ft 219 kts 230°
2026-05-07 02:31 39.84659 -86.11811 3962 ft 207 kts 230°
2026-05-07 02:32 39.83678 -86.13052 3966 ft 190 kts 230°
2026-05-07 02:32 39.82729 -86.14258 3730 ft 188 kts 231°
2026-05-07 02:32 39.81804 -86.15435 3493 ft 187 kts 231°
2026-05-07 02:32 39.80863 -86.16631 3252 ft 188 kts 231°
2026-05-07 02:33 39.79937 -86.17806 3012 ft 186 kts 231°
2026-05-07 02:33 39.79017 -86.18974 2765 ft 186 kts 230°
2026-05-07 02:33 39.78084 -86.20161 2506 ft 181 kts 230°
2026-05-07 02:33 39.77234 -86.21238 2292 ft 165 kts 231°
2026-05-07 02:34 39.76443 -86.22240 2036 ft 150 kts 232°
2026-05-07 02:34 39.75726 -86.23144 1803 ft 141 kts 232°
2026-05-07 02:34 39.75026 -86.24033 1624 ft 140 kts 232°
2026-05-07 02:34 39.74335 -86.24921 1461 ft 141 kts 231°
2026-05-07 02:35 39.73639 -86.25821 1278 ft 140 kts 230°
2026-05-07 02:35 39.72939 -86.26714 1097 ft 140 kts 229°
2026-05-07 02:35 39.72248 -86.27601 902 ft 139 kts 228°
2026-05-07 02:35 39.71576 -86.28462 802 ft 126 kts 225°
2026-05-07 02:36 39.71058 -86.29127 802 ft 83 kts 225°
2026-05-07 02:36 39.70861 -86.29517 802 ft 27 kts 253°
2026-05-07 02:36 39.70911 -86.29610 802 ft 16 kts 32°
2026-05-07 02:36 39.70964 -86.29546 802 ft 6 kts 46°
2026-05-07 02:37 39.70967 -86.29542 802 ft 0 kts 46°
2026-05-07 02:37 39.70972 -86.29535 802 ft 5 kts 46°
2026-05-07 02:37 39.71055 -86.29434 802 ft 20 kts 35°
2026-05-07 02:37 39.71188 -86.29389 802 ft 19 kts 358°
2026-05-07 02:38 39.71319 -86.29400 802 ft 17 kts
2026-05-07 02:38 39.71409 -86.29308 802 ft 16 kts 50°
2026-05-07 02:38 39.71477 -86.29202 802 ft 14 kts 51°
2026-05-07 02:38 39.71543 -86.29107 802 ft 14 kts 32°
2026-05-07 02:39 39.71628 -86.29148 802 ft 14 kts 321°
2026-05-07 02:39 39.71709 -86.29237 802 ft 15 kts 320°
2026-05-07 02:39 39.71759 -86.29345 802 ft 15 kts 256°
2026-05-07 02:39 39.71711 -86.29426 802 ft 13 kts 231°
2026-05-07 02:40 39.71679 -86.29436 802 ft 2 kts 157°
2026-05-07 02:40 39.71664 -86.29430 802 ft 2 kts 153°
2026-05-07 02:40 39.71647 -86.29417 802 ft 0 kts 149°